User: anonymous   Login
Location: Unspecified
(0.0000°N, 0.0000°E)
Time: 10:53:33
(UTC+00:00)
Language:

UOSAT-12 - Orbit

View from above orbital plane
View from above orbital plane
View from above satellite
View from above satellite

Ground track
Ground track

The orbit data is extracted from the following two-line orbital elements,

1 25693U 99021A   19081.93195710 -.00000059 +00000-0 +11384-4 0  9996
2 25693 064.5555 301.4332 0035002 229.5662 130.2389 14.80835206075178
Epoch (UTC): 22 March 2019 22:22:01
Eccentricity: 0.0035002
inclination: 64.5555°
perigee height: 602 km
apogee height: 651 km
right ascension of ascending node: 301.4332°
argument of perigee: 229.5662°
revolutions per day: 14.80835206
mean anomaly at epoch: 130.2389°
orbit number at epoch: 7517

The dashed part of the orbit path shows where the satellite is in the earth's shadow,  

DLR